Houlton, ME

1:57 AM EDT on March 30, 2017 (GMT -0400)
Houlton International

Weather History for KHUL - September, 2012

Change the Weather History Date:

Thursday, September 20, 2012

  Actual Average Record
Temperature  
Mean Temperature 45 °F 53 °F  
Max Temperature 61 °F 65 °F 84 °F (1968)
Min Temperature 29 °F 42 °F 25 °F (1950)
Degree Days  
Heating Degree Days 20 12  
Month to date heating degree days 138 171  
Since 1 July heating degree days 190 327  
Cooling Degree Days 0 0  
Month to date cooling degree days 9 12  
Year to date cooling degree days 277 190  
Moisture  
Dew Point 36 °F    
Average Humidity 68    
Maximum Humidity 100    
Minimum Humidity 35    
Precipitation  
Precipitation 0.00 in 0.12 in 1.01 in (1997)
Month to date precipitation 2.35 2.18  
Year to date precipitation 30.86 27.80  
Sea Level Pressure  
Sea Level Pressure 30.25 in    
Wind  
Wind Speed 3 mph (East)    
Max Wind Speed 10 mph    
Max Gust Speed 15 mph    
Visibility 10 miles    
Events      
T = Trace of Precipitation, MM = Missing Value Source: NWS Daily Summary

Daily Weather History Graph

Daily Weather History Graph

Search for Another Location

Airport or City:

Trip Planner

Search our weather history database for the weather conditions in past years. The results will help you decide how hot, cold, wet, or windy it might be!

Date:

Astronomy

Sep. 20, 2012 Rise Set
Actual Time 6:16 AM EDT 6:31 PM EDT
Civil Twilight 5:46 AM EDT 7:01 PM EDT
Nautical Twilight 5:10 AM EDT 7:36 PM EDT
Astronomical Twilight 4:34 AM EDT 8:13 PM EDT
Moon 11:49 AM EDT (9/20) 9:10 PM EDT (9/20)
Length of Visible Light 13h 15m
Length of Day
12h 15m
Waxing Crescent, 26% of the Moon is Illuminated
Sep 20
Waxing Crescent
Sep 22
First Quarter
Sep 29
Full
Oct 8
Last Quarter
Oct 15
New

Hourly Weather History & Observations

Time (EDT) Temp. Windchill Dew Point Humidity Pressure Visibility Wind Dir Wind Speed Gust Speed Precip Events Conditions
12:53 AM 34.0 °F - 33.1 °F 96% 30.24 in 10.0 mi Calm Calm - N/A   Clear
1:53 AM 35.1 °F - 34.0 °F 96% 30.26 in 10.0 mi Calm Calm - N/A   Clear
2:53 AM 34.0 °F - 32.0 °F 92% 30.27 in 10.0 mi Calm Calm - N/A   Clear
3:53 AM 33.1 °F - 30.9 °F 92% 30.28 in 10.0 mi Calm Calm - N/A   Clear
4:53 AM 30.9 °F - 28.9 °F 92% 30.29 in 8.0 mi Calm Calm - N/A   Clear
5:53 AM 30.2 °F - 28.4 °F 93% 30.29 in 9.0 mi Calm Calm - N/A   Clear
6:53 AM 30.0 °F - 28.9 °F 96% 30.32 in 10.0 mi Calm Calm - N/A   Clear
7:11 AM 32.0 °F - 30.2 °F 93% 30.30 in 10.0 mi Calm Calm - N/A   Scattered Clouds
7:53 AM 39.9 °F - 37.0 °F 89% 30.32 in 10.0 mi Calm Calm - N/A   Clear
8:53 AM 45.0 °F 43.5 °F 37.9 °F 76% 30.32 in 10.0 mi NNE 3.5 mph - N/A   Clear
9:53 AM 51.1 °F - 37.9 °F 61% 30.32 in 10.0 mi NNE 5.8 mph - N/A   Clear
10:53 AM 53.1 °F - 34.0 °F 48% 30.30 in 10.0 mi East 6.9 mph - N/A   Clear
11:53 AM 57.0 °F - 37.0 °F 47% 30.29 in 10.0 mi NNE 6.9 mph - N/A   Clear
12:53 PM 57.9 °F - 35.1 °F 42% 30.26 in 10.0 mi Variable 4.6 mph - N/A   Clear
1:53 PM 59.0 °F - 32.0 °F 36% 30.23 in 10.0 mi Variable 4.6 mph - N/A   Clear
2:53 PM 61.0 °F - 32.0 °F 34% 30.22 in 10.0 mi Calm Calm - N/A   Clear
3:53 PM 61.0 °F - 33.1 °F 35% 30.21 in 10.0 mi SE 6.9 mph - N/A   Clear
4:53 PM 60.1 °F - 35.1 °F 39% 30.20 in 10.0 mi Variable 6.9 mph - N/A   Clear
5:53 PM 57.0 °F - 37.9 °F 49% 30.19 in 10.0 mi SE 3.5 mph - N/A   Clear
6:53 PM 46.9 °F - 43.0 °F 86% 30.20 in 10.0 mi Calm Calm - N/A   Clear
7:53 PM 44.1 °F - 41.0 °F 89% 30.21 in 10.0 mi Calm Calm - N/A   Clear
8:53 PM 42.1 °F - 39.9 °F 92% 30.20 in 10.0 mi Calm Calm - N/A   Clear
9:53 PM 51.1 °F - 43.0 °F 74% 30.20 in 10.0 mi ESE 8.1 mph - N/A   Clear
10:53 PM 50.0 °F - 43.0 °F 77% 30.20 in 10.0 mi ESE 8.1 mph - N/A   Scattered Clouds
11:53 PM 48.0 °F - 43.0 °F 83% 30.19 in 10.0 mi ESE 8.1 mph - N/A   Clear